    Orbital elements:
    2020 WB                                                  Earth MOID = 0.0091 AU
    Epoch 2020 Dec. 17.0 TT = JDT 2459200.5                 Veres
    M  29.25385              (2000.0)            P               Q
    n   0.71063681     Peri.  168.28807     +0.73306262     -0.67508450
    a   1.2436674      Node   234.49567     +0.61551987     +0.71033151
    e   0.1995668      Incl.    5.84806     +0.28940367     +0.19922367
    P   1.39           H   27.6           G   0.15           U   3
    Residuals in seconds of arc
    201116 703  0.4+  0.2-    201116 I93  0.2+  0.1+    201117 L01  0.4-  0.8-
    201116 703  0.3+  0.0     201116 958  0.3+  0.6+    201117 W34  0.0   0.2+
    201116 703  0.3-  0.5+    201116 958  0.4-  0.0     201117 X31  0.1+  0.5-
    201116 I52  0.0   0.1+    201116 I93  0.1+  0.1-    201117 W34  0.0   0.2+
    201116 I52  0.1+  0.1+    201116 958  0.1+  1.2+    201117 X31  0.0   0.0
    201116 I52  0.0   0.0     201116 130  0.5+  0.1-    201117 X31  0.2+  0.4-
    201116 I52  0.1-  0.0     201116 130  0.4+  0.5-    201117 W34  0.5-  0.1+
    201116 I52  0.0   0.1-    201116 130  0.0   0.0     201117 X31  0.6+  0.2-
    201116 I52  0.1-  0.1+    201116 K38  0.6-  0.3+    201117 I52  0.4-  0.3+
    201116 I52  0.2-  0.1-    201116 K38  0.2+  0.4+    201117 I52  0.5-  0.4+
    201116 I52  0.1-  0.0     201116 K38  0.1-  0.1-    201117 I52  0.4-  0.5+
    201116 033  0.1+  0.6-    201116 K38  0.8-  0.1+    201117 I52  0.7-  0.6+
    201116 033  0.1+  0.7-    201116 204  0.1-  0.0     201117 711  0.2+  0.8+
    201116 033  0.1-  0.5-    201116 204  0.4+  0.1-    201117 711  0.5-  0.6+
    201116 C77  0.5+  0.0     201116 204  0.2-  0.1-    201117 734  0.1+  0.5-
    201116 C77  0.2+  0.6-    201116 204  0.3+  0.1-    201117 711  0.2-  1.3+
    201116 C77  0.2+  0.4-    201116 203  0.1-  0.1+    201117 734  1.0+  1.3-
    201116 C77  0.2-  0.4-    201116 204  0.1+  0.1+    201117 711  0.2-  0.9+
    201116 C77  0.5-  0.1+    201116 203  0.1+  0.1+    201117 734  0.4+  0.9-
    201116 I93  0.1+  0.0     201116 203  0.1+  0.2+    201117 734  0.6+  0.9-
    201116 958  0.2+  0.6+    201117 L01  1.1-  0.1+    201117 734  0.5+  0.8-
    
    Ephemeris:
    2020 WB                  a,e,i = 1.24, 0.20, 6                   q = 0.9955
    Date    TT    R. A. (2000) Decl.     Delta      r    Elong.  Phase     V
    2020 10 18    19 28 22.8 +32 30 32   0.06723 1.0038    94.4    81.8    24.6
    ...
    2020 11 02    20 01 14.7 +37 24 56   0.03351 0.9948    93.5    84.6    23.2
    ...
    2020 11 10    21 39 08.1 +46 01 46   0.01574 0.9955   108.7    70.4    21.0
    ...
    2020 11 16    03 17 51.4 +27 01 16   0.0095130.9984   171.5     8.4    18.1
    2020 11 17    04 00 20.5 +17 36 31   0.01038 0.9990   172.6     7.3    18.2
    2020 11 18    04 31 24.4 +09 36 24   0.01172 0.9997   163.1    16.7    18.8
    ...
    2020 11 24    05 50 33.4 -12 06 53   0.02408 1.0051   137.4    41.7    21.1
    ...
    2020 12 02    06 17 57.6 -18 47 12   0.04332 1.0153   131.9    46.3    22.6
    ...
    2020 12 17    06 28 13.8 -20 11 50   0.08102 1.0428   134.8    42.0    23.9
    
    M. P. C. Staff               (C) Copyright 2020 MPC           M.P.E.C. 2020-W29
    


    Read MPEC 2020-W28 Read MPEC 2020-W30


    MPEC number:

    Enter an MPEC number in one of the following forms:

    • 1997-B01 (the full form)
    • J97B01 (the packed version of the full form)
    • B01 (the abbreviated form)